Location: Hiram
(41.3130°N, 81.1440°W)
Time: 01:58:32
(UTC-04:00)

Daily predictions for brighter satellites

Satellite Brightness Start Highest point End
(mag) Time Altitude Azimuth Time Altitude Azimuth Time Altitude Azimuth
Meteor 1-11 Rocket 3.8 00:06:55 66° SW 00:07:42 78° W 00:13:30 10° N
Meteor 2-21 4.4 00:07:16 62° SSW 00:08:21 80° W 00:14:36 10° N
ATLAS 2AS CENTAUR R/B 4.1 00:02:58 10° NNW 00:10:29 38° NE 00:14:45 23° E
Cosmos 2123 Rocket 3.9 00:04:32 10° N 00:10:48 68° E 00:11:20 65° ESE
ALOS 2 4.1 00:14:48 29° NE 00:14:48 29° NE 00:17:52 10° N
Okean 1 Rocket 4.4 00:15:49 33° W 00:16:08 33° WNW 00:20:13 10° N
NOSS 3-1 (C) 4.0 00:11:38 10° NW 00:19:16 80° WSW 00:21:03 58° SSE
Cosmos 1354 Rocket 4.0 00:14:39 10° NNW 00:19:39 80° NNW 00:19:39 80° NNW
Gbstr 26 Del rocket 4.1 00:15:19 10° WNW 00:18:30 40° WNW 00:18:30 40° WNW
H-2A R/B 3.7 00:22:52 23° WSW 00:23:46 24° W 00:28:02 10° NW
USA 234 3.3 00:18:22 10° NE 00:24:54 74° NW 00:30:13 16° WSW
Cosmos 2369 Rocket 2.1 00:26:50 82° NE 00:26:50 82° NE 00:32:14 10° NNE
Cosmos 1400 Rocket 4.2 00:30:22 37° NW 00:30:22 37° NW 00:33:26 10° N
Cosmos 1536 4.3 00:32:37 35° NNW 00:32:37 35° NNW 00:35:16 10° N
Cosmos 1818 4.5 00:35:17 39° ENE 00:35:17 39° ENE 00:38:56 10° NE
CZ-2C R/B 4.4 00:30:25 10° NE 00:33:08 20° ENE 00:33:08 20° ENE
Meteor 1-23 Rocket 4.2 00:30:03 10° NNW 00:35:25 72° WNW 00:35:25 72° WNW
Terra 3.8 00:35:40 18° W 00:35:47 18° W 00:39:03 10° NW
ISS 0.0 00:35:07 10° NW 00:36:51 13° N 00:38:12 11° NNE
Cosmos 1992 Rocket 4.5 00:40:24 53° NE 00:40:24 53° NE 00:44:29 10° NNE
MOS 1-B Rocket 4.2 00:52:07 58° E 00:52:39 60° ENE 00:59:24 10° N
Cosmos 1943 Rocket 2.6 00:59:42 53° NE 00:59:42 53° NE 01:04:09 10° NNE
H-2A R/B 3.7 00:54:37 10° NNE 00:57:39 41° NNE 00:57:39 41° NNE
Meteor 1-5 Rocket 4.4 01:00:50 61° NW 01:00:50 61° NW 01:05:41 10° N
Cosmos 1447 Rocket 4.4 00:58:56 10° N 01:05:04 80° W 01:05:04 80° W
Lacrosse 5 3.3 01:04:10 24° W 01:06:25 35° NNW 01:11:05 10° NNE
Cosmos 44 Rocket 4.1 01:06:55 10° NNW 01:11:24 48° NNE 01:11:24 48° NNE
Cosmos 2100 Rocket 3.9 01:18:56 84° E 01:18:56 84° E 01:25:19 10° N
Cosmos 1459 Rocket 3.9 01:32:34 80° NW 01:32:34 80° NW 01:38:29 10° N
Cosmos 2016 Rocket 3.9 01:36:18 75° ENE 01:36:18 75° ENE 01:42:09 10° N
Cosmos 1241 Rocket 4.4 01:29:56 10° NNW 01:36:22 87° W 01:36:22 87° W
Cosmos 2061 Rocket 4.0 01:37:38 77° W 01:37:42 77° W 01:44:09 10° N
NOSS 3-3 (A) 4.2 01:41:21 61° E 01:41:21 61° E 01:47:19 10° NE
NOSS 3-3 (C) 4.2 01:41:26 60° E 01:41:26 60° E 01:47:24 10° NE
Lacrosse 5 rocket 4.2 01:39:06 10° NW 01:40:50 13° NNW 01:42:34 10° N
Cosmos 44 4.3 01:38:11 10° NNW 01:43:07 43° NE 01:43:07 43° NE
Cosmos 968 Rocket 4.1 01:38:49 10° NNW 01:42:51 53° NW 01:42:51 53° NW
Cosmos 1802 Rocket 3.9 01:46:47 75° WNW 01:46:47 75° WNW 01:53:03 10° N
BREEZE-M DEB (TANK) 4.2 01:42:24 10° WNW 01:52:17 44° N 01:54:02 28° ENE
Cosmos 2173 Rocket 4.2 01:54:25 57° W 01:54:35 57° W 02:00:51 10° N
CZ-2C R/B 3.4 01:56:01 57° N 01:56:01 57° N 01:59:53 10° NNW
Cosmos 1864 Rocket 4.5 01:56:48 73° E 01:56:48 73° E 02:03:00 10° NNE
ATLAS 2AS CENTAUR R/B 3.0 01:54:01 10° NW 02:01:56 61° WSW 02:02:08 60° SW
Cosmos 2369 Rocket 4.5 02:08:35 12° W 02:11:22 16° NW 02:14:44 10° N
Cosmos 1725 Rocket 3.8 02:13:06 83° W 02:13:09 83° W 02:19:21 10° N
Meteor 1-21 4.3 02:08:03 10° NNW 02:13:11 73° NW 02:13:11 73° NW
CZ-2C R/B 3.3 02:09:57 10° N 02:14:39 45° WNW 02:14:39 45° WNW
Cosmos 1816 Rocket 4.4 02:10:50 10° N 02:17:09 80° E 02:17:32 76° SE
Meteor 2-9 Rocket 4.3 02:19:56 71° E 02:19:56 71° E 02:25:38 10° NNE
Cosmos 2219 3.9 02:19:04 10° NNW 02:23:14 43° WNW 02:23:14 43° WNW
Cosmos 2227 Rocket 3.0 02:20:27 10° NNW 02:25:55 46° ENE 02:27:28 37° ESE
Cosmos 2098 Rocket 4.2 02:27:02 63° WSW 02:27:53 69° W 02:35:30 10° N
Tsikada Rocket 4.0 02:22:15 10° NNW 02:28:30 67° W 02:28:37 67° W
Cosmos 1656 Rocket 4.3 02:30:55 45° WNW 02:31:10 45° WNW 02:36:35 10° NNE
Meteor 1-15 Rocket 4.2 02:36:00 85° SE 02:36:06 87° E 02:42:02 10° N
Cosmos 2208 Rocket 4.2 02:37:28 65° NW 02:37:28 65° NW 02:42:18 10° NNE
Cosmos 1666 4.5 02:40:43 29° NNW 02:40:43 29° NNW 02:42:44 10° N
Cosmos 972 Rocket 4.1 02:35:00 10° NNW 02:39:55 69° ENE 02:39:55 69° ENE
Cosmos 1943 Rocket 4.0 02:41:11 17° WNW 02:42:52 20° NW 02:46:55 10° N
Cosmos 2278 3.7 02:45:40 69° ESE 02:45:43 69° ESE 02:51:22 10° NNE
NPP 4.3 02:40:42 10° NNE 02:45:50 43° E 02:46:15 43° ESE
Cosmos 2058 Rocket 4.2 02:47:02 38° NW 02:47:02 38° NW 02:50:15 10° N
BREEZE-M DEB (TANK) 3.9 02:46:37 63° SE 02:46:37 63° SE 02:49:53 10° ENE
Cosmos 2297 Rocket 3.0 02:41:35 10° NNW 02:47:03 48° ENE 02:49:23 31° ESE
Cosmos 2298 Rocket 4.5 02:42:22 10° NNW 02:47:36 57° ENE 02:48:28 50° ESE
Cosmos 2369 3.8 02:47:40 63° ESE 02:47:46 63° ESE 02:53:23 10° NNE
ATLAS CENTAUR R/B 2.5 02:53:11 46° E 02:53:11 46° E 02:57:30 10° NE
Cosmos 2346 Rocket 4.3 02:47:54 10° N 02:54:11 81° W 02:54:54 70° SSW
NOSS 2-1 (D) 4.5 02:55:28 41° ENE 02:55:28 41° ENE 02:58:35 10° NE
PSLV R/B 4.0 02:50:27 10° N 02:54:16 62° NNW 02:54:16 62° NNW
NOSS 2-1 (C) 4.4 02:56:50 41° ENE 02:56:50 41° ENE 03:00:00 10° NE
SeaSat 1 2.6 02:57:59 64° WNW 02:57:59 64° WNW 03:02:16 10° NNW
Cosmos 405 Rocket 3.7 02:59:26 10° N 03:02:52 48° NE 03:02:52 48° NE
Cosmos 468 Rocket 4.1 03:03:37 62° ESE 03:03:47 62° ESE 03:08:53 10° NNE
AQUA 4.1 03:04:01 10° NNE 03:08:42 56° E 03:08:53 56° ESE
NOSS 2-1 (E) 3.8 03:11:30 60° ENE 03:11:30 60° ENE 03:15:18 10° NE
ERS-2 3.5 03:13:17 10° NNE 03:16:22 35° E 03:16:22 35° E
Cosmos 1464 Rocket 3.9 03:15:30 57° S 03:16:56 89° E 03:23:19 10° N
Cosmos 2233 Rocket 4.5 03:16:30 40° W 03:17:12 42° WNW 03:23:00 10° N
Meteor 1-24 Rocket 4.3 03:17:41 10° N 03:23:20 55° ENE 03:26:30 26° SE
Okean 3 Rocket 3.7 03:19:13 10° N 03:23:36 66° E 03:23:54 64° ESE
Cosmos 1656 3.7 03:23:43 56° SSE 03:24:46 70° ESE 03:30:25 10° NNE
NOSS 3-4 (A) 3.9 03:18:06 10° NNW 03:25:06 78° NE 03:32:31 10° SE
Cosmos 2150 Rocket 3.8 03:19:57 10° NNW 03:25:12 77° WSW 03:25:35 72° SSW
NOSS 3-4 (C) 3.9 03:18:12 10° NNW 03:25:15 78° NE 03:32:41 10° SE
Cosmos 972 4.3 03:21:00 10° NNW 03:25:55 88° WSW 03:26:32 69° S
IRAS Rocket 4.2 03:22:52 10° NNE 03:28:32 79° ESE 03:29:53 53° S
Cosmos 1898 Rocket 3.4 03:24:55 10° NNW 03:30:15 69° WSW 03:30:42 65° SW
Cosmos 841 Rocket 4.1 03:33:01 39° SSE 03:34:26 49° ESE 03:39:31 10° NNE
IRS-1C 4.1 03:29:30 10° NNE 03:34:52 83° ESE 03:36:07 55° S
CZ-2D R/B 3.5 03:30:01 10° NNE 03:34:55 33° E 03:37:43 20° SE
SL-08 R/B 3.3 03:39:16 57° W 03:39:16 57° W 03:43:46 10° NNW
Cosmos 1763 Rocket 3.7 03:38:11 47° SSE 03:39:28 63° ESE 03:44:36 10° NNE
Cosmos 1076 Rocket 4.4 03:35:40 10° N 03:39:50 45° ENE 03:41:32 29° SE
Cosmos 1937 Rocket 3.3 03:34:47 10° NNW 03:39:58 79° WSW 03:41:09 54° S
Geosat 3.9 03:35:04 10° NNE 03:40:08 82° ESE 03:41:10 57° SSW
CBERS 1 LM4 rocket 4.3 03:35:44 10° NNE 03:40:33 85° ESE 03:41:30 59° S
Cosmos 1707 3.2 03:40:53 10° NNW 03:44:09 51° NW 03:44:09 51° NW
Cosmos 1513 Rocket 4.4 03:43:32 47° SW 03:45:14 68° W 03:51:18 10° N
Cosmos 1953 3.9 03:47:49 23° SE 03:49:23 31° E 03:53:01 10° NNE
Cosmos 1697 Rocket 2.6 03:53:03 45° SSW 03:54:53 89° WNW 04:00:36 10° NNE
USA 161 2.6 03:58:24 39° N 03:58:24 39° N 04:00:19 10° N
ARIANE 5 R/B 2.7 03:52:22 10° NNE 03:57:31 69° ESE 03:59:42 35° S
Cosmos 2082 4.5 03:55:25 10° NW 04:00:08 32° W 04:00:08 32° W
ERS-1 4.4 03:55:37 10° NNE 04:00:42 86° WNW 04:02:23 43° SSW
Cosmos 1980 Rocket 2.4 04:01:23 34° S 04:03:50 66° ESE 04:09:27 10° NNE
ADEOS 3.7 04:02:10 10° N 04:07:19 61° WNW 04:09:06 39° SW
Cosmos-2242 3.5 04:06:27 30° SSE 04:08:21 56° E 04:12:34 10° NNE
Okean O Rocket 3.7 04:05:33 10° NE 04:09:01 22° E 04:12:29 10° SSE
Cosmos 2227 Rocket 3.3 04:05:06 10° NW 04:09:14 25° W 04:09:14 25° W
BREEZE-M R/B 4.3 04:04:23 10° WNW 04:10:24 50° SW 04:17:01 10° SSE
Resurs 1-4 Rocket 2.2 04:05:36 10° NNE 04:10:52 70° ESE 04:13:46 27° S
BREEZE-M DEB (TANK) 3.1 04:13:42 35° SSW 04:15:36 63° SE 04:19:35 10° ENE
Cosmos 2322 Rocket 3.6 04:12:14 13° SSE 04:16:31 32° ESE 04:21:26 10° NE
Cosmos 1408 Rocket 3.5 04:12:09 10° NNW 04:16:32 73° W 04:18:18 35° S
Spot 4 Rocket 4.3 04:12:53 10° N 04:17:56 55° WNW 04:19:56 34° SW
Abrixas 2.6 04:17:06 41° NW 04:18:00 75° NNE 04:21:03 10° ESE
Cosmos 1766 Rocket 3.5 04:16:41 10° NNW 04:21:05 71° W 04:23:05 32° S
Nadezhda 4 Rocket 4.2 04:19:25 10° NNW 04:25:24 52° W 04:28:54 25° SSW
RESURS DK-1 3.7 04:22:41 10° NNW 04:26:38 41° ENE 04:30:32 10° SE
IRS-1D 3.5 04:22:44 10° N 04:27:40 68° WNW 04:30:10 29° SSW
Cosmos 2297 Rocket 3.3 04:26:19 10° NW 04:30:44 24° WSW 04:31:06 24° WSW
ATLAS CENTAUR R/B 3.3 04:29:31 18° W 04:32:01 27° NW 04:36:16 10° NNE
SL-16 R/B 2.5 04:27:42 15° S 04:32:49 62° WSW 04:38:56 10° NNW
Cosmos 1378 3.9 04:33:53 10° NNW 04:37:18 32° W 04:37:48 31° WSW
Cosmos 1655 Rocket 4.2 04:32:08 10° N 04:38:33 76° E 04:44:56 10° SSE
Cosmos 1470 3.8 04:37:58 11° SSE 04:41:33 45° E 04:45:22 10° NNE
Cosmos 1842 Rocket 3.9 04:39:09 15° S 04:42:51 68° E 04:47:19 10° NNE
CZ-2D R/B 3.6 04:39:49 10° NNE 04:44:11 80° ESE 04:47:36 17° S
MOZ.5/SAFIR/RUBIN 5/SL-8 4.5 04:41:56 10° SSE 04:46:32 56° ENE 04:51:07 10° N
Cosmos 1461 2.8 04:44:15 10° NNW 04:48:24 84° ENE 04:52:22 10° SSE
PSLV R/B 4.2 04:45:56 10° NNE 04:49:44 59° E 04:53:02 13° S
ERS-2 4.1 04:48:00 10° NNW 04:50:15 16° WNW 04:51:12 14° W
SL-16 R/B 2.7 04:45:30 13° S 04:50:30 59° ESE 04:56:05 10° NNE
Cosmos 2360 4.2 04:46:59 21° SSW 04:50:54 74° WNW 04:56:39 10° NNE
GPS 2-04 Rocket1 3.5 04:50:41 26° SW 04:51:51 31° S 04:55:18 10° SE
SL-24 R/B - RUBIN 2 4.4 04:51:13 18° SSW 04:55:33 81° ESE 05:01:58 10° NE
Cosmos 2026 Rocket 4.0 04:50:00 10° N 04:56:19 75° W 05:02:32 10° S
USA 81 4.0 04:56:04 12° S 05:00:59 72° W 05:06:17 10° N
Cosmos 372 Rocket 3.9 04:56:21 10° NNW 05:01:29 82° WSW 05:06:33 10° SSE
Lacrosse 5 rocket 4.2 05:00:43 10° N 05:02:27 13° NNE 05:04:11 10° NE
Cosmos 2263 Rocket 3.5 04:57:08 10° NNW 05:02:27 43° ENE 05:07:43 10° SE
Cosmos 332 Rocket 3.8 05:00:31 17° SSW 05:04:13 69° WNW 05:09:03 10° NNE
Cosmos 1634 Rocket 4.4 04:59:33 16° SSW 05:04:18 47° WNW 05:10:23 10° N
UNKNOWN OBJECT B 3.4 05:01:55 10° N 05:05:34 39° WNW 05:07:58 18° SW
CZ-4B R/B 3.3 05:02:21 10° NNE 05:06:13 57° E 05:09:52 10° S
Cosmos 1437 3.8 05:08:24 10° NNW 05:11:20 28° W 05:13:16 16° SW
CZ-4B R/B 3.3 05:06:14 10° NNE 05:11:47 80° ESE 05:17:12 10° SSW
Cosmos 2151 3.3 05:08:12 10° N 05:12:31 69° E 05:16:47 10° SSE
CZ-2D R/B 3.1 05:10:05 10° N 05:14:55 33° WNW 05:19:04 13° SW
DELTA 2 R/B (1) 4.4 05:11:24 14° SW 05:15:40 38° SSE 05:20:47 10° E
PAYLOAD B 4.3 05:10:24 10° NNE 05:16:02 90° NW 05:21:38 10° SSW
Milstar 3 Cent rocket 3.7 05:13:36 14° SW 05:17:13 25° S 05:23:59 10° SE
IRS-1C Rocket 4.1 05:12:07 10° N 05:17:21 68° WNW 05:22:34 10° SSW
ADEOS II 3.6 05:13:26 10° NNE 05:18:16 36° E 05:23:03 10° SSE
Cosmos 1125 Rocket 4.2 05:13:38 10° NW 05:18:16 33° W 05:22:52 10° SSW
Cosmos 1733 3.1 05:15:42 10° SSW 05:19:29 76° W 05:23:18 10° N
Cosmos 371 Rocket 3.3 05:18:44 11° SSW 05:23:25 67° WNW 05:28:14 10° NNE
Cosmos 1544 4.1 05:21:57 14° SW 05:24:36 30° WNW 05:27:52 10° NNW
Cosmos 1953 4.0 05:23:35 12° WSW 05:25:56 18° WNW 05:28:49 10° NNW
UNK 4.0 05:24:41 10° NW 05:26:54 24° NNE 05:28:41 10° ENE
Cosmos 1500 Rocket 4.2 05:23:59 10° NNW 05:28:00 36° W 05:31:59 10° SSW
Cosmos 1328 3.8 05:24:27 10° N 05:28:30 85° W 05:32:31 10° S
Alouette 2 Rocket 4.4 05:29:08 10° N 05:32:40 50° ENE 05:36:58 10° SSE
GEOS 3 Rocket 4.3 05:28:53 10° S 05:33:26 30° WSW 05:37:59 10° NW
ARIANE 5 R/B 4.4 05:33:03 10° NNW 05:36:04 16° WNW 05:39:05 10° W
Aureole 3 4.2 05:32:17 10° N 05:36:43 76° E 05:42:25 10° SSE
CZ-2C R/B 4.3 05:34:12 10° SSW 05:38:32 37° W 05:42:50 10° NNW
CZ-3 R/B 3.7 05:17:01 10° WSW 05:42:21 40° S 05:49:18 10° ESE
Okean O Rocket 2.5 05:41:30 10° N 05:45:26 33° WNW 05:49:23 10° SW
Cosmos 2221 2.5 05:42:44 10° SSW 05:46:59 70° W 05:51:17 10° N
Cosmos 2360 Rocket 2.6 05:42:45 10° SSW 05:48:19 68° ESE 05:53:56 10° NNE
Cosmos 1980 Rocket 3.8 05:44:15 10° W 05:48:22 20° NW 05:52:30 10° N
Cosmos 1674 3.9 05:46:38 10° NW 05:49:37 22° W 05:52:35 10° SW
Resurs 1-4 Rocket 3.9 05:46:59 10° NNW 05:50:06 16° WNW 05:53:12 10° W
Cosmos 1633 Rocket 3.8 05:46:42 10° N 05:51:04 60° E 05:55:24 10° SSE
